| time (UTC) | temp F | wind direction | speed MPH | gust MPH | rain 1hr in | rain 24hr in | rain mn in | humidity % | barometer mb |
| 20260507191445 | 57 | 293 | 1.0 | 7.0 | 0.00 | 0.00 | 0.94 | 83 | 1002.0 |
| 20260507190936 | 57 | 315 | 1.0 | 7.0 | 0.00 | 0.00 | 0.94 | 83 | 1001.8 |
| 20260507190425 | 57 | 270 | 1.0 | 4.0 | 0.00 | 0.00 | 0.94 | 83 | 1002.2 |
| 20260507185916 | 58 | 270 | 2.0 | 6.0 | 0.00 | 0.00 | 0.94 | 81 | 1002.5 |
| 20260507185405 | 58 | 315 | 0.0 | 11.0 | 0.00 | 0.00 | 0.94 | 81 | 1003.0 |
| 20260507184855 | 58 | 338 | 2.0 | 11.0 | 0.00 | 0.00 | 0.94 | 80 | 1003.0 |
| 20260507184345 | 58 | 248 | 2.0 | 7.0 | 0.00 | 0.00 | 0.94 | 80 | 1003.2 |
| 20260507183835 | 58 | 293 | 2.0 | 7.0 | 0.00 | 0.00 | 0.94 | 79 | 1003.3 |
| 20260507182814 | 58 | 248 | 2.0 | 6.0 | 0.00 | 0.00 | 0.94 | 80 | 1003.5 |
| 20260507182307 | 58 | 270 | 2.0 | 7.0 | 0.00 | 0.00 | 0.94 | 81 | 1003.7 |
| 20260507181751 | 58 | 225 | 2.0 | 7.0 | 0.00 | 0.00 | 0.94 | 80 | 1003.9 |
| 20260507181241 | 59 | 315 | 1.0 | 4.0 | 0.00 | 0.00 | 0.94 | 82 | 1004.1 |
| 20260507180733 | 58 | 248 | 0.0 | 6.0 | 0.00 | 0.00 | 0.94 | 82 | 1004.5 |
| 20260507180233 | 58 | 248 | 2.0 | 6.0 | 0.00 | 0.00 | 0.94 | 81 | 1004.7 |
| 20260507175714 | 58 | 225 | 4.0 | 6.0 | 0.00 | 0.00 | 0.94 | 81 | 1004.7 |
| 20260507175204 | 58 | 248 | 2.0 | 9.0 | 0.00 | 0.00 | 0.94 | 82 | 1004.6 |
| 20260507174654 | 58 | 248 | 3.0 | 9.0 | 0.00 | 0.00 | 0.94 | 82 | 1004.7 |
| 20260507174144 | 58 | 248 | 0.0 | 4.0 | 0.00 | 0.00 | 0.94 | 83 | 1004.7 |
| 20260507173634 | 58 | 270 | 0.0 | 11.0 | 0.00 | 0.00 | 0.94 | 83 | 1004.6 |
| 20260507173123 | 57 | 248 | 4.0 | 11.0 | 0.00 | 0.00 | 0.94 | 82 | 1004.4 |
| 20260507172613 | 58 | 248 | 2.0 | 4.0 | 0.00 | 0.00 | 0.94 | 83 | 1004.3 |
| 20260507172102 | 58 | 270 | 2.0 | 4.0 | 0.00 | 0.00 | 0.94 | 83 | 1003.7 |
| 20260507171043 | 58 | 248 | 1.0 | 4.0 | 0.00 | 0.00 | 0.94 | 83 | 1003.5 |
| 20260507165513 | 58 | 248 | 1.0 | 4.0 | 0.00 | 0.00 | 0.94 | 83 | 1003.5 |
| 20260507165002 | 58 | 248 | 1.0 | 4.0 | 0.00 | 0.00 | 0.94 | 83 | 1003.1 |
| 20260507164453 | 58 | 248 | 1.0 | 4.0 | 0.00 | 0.00 | 0.94 | 83 | 1003.1 |
| 20260507163942 | 58 | 270 | 2.0 | 4.0 | 0.00 | 0.00 | 0.94 | 83 | 1003.2 |
| 20260507163431 | 58 | 248 | 1.0 | 4.0 | 0.00 | 0.00 | 0.94 | 85 | 1003.4 |
| 20260507162922 | 57 | 270 | 0.0 | 4.0 | 0.00 | 0.00 | 0.94 | 86 | 1003.5 |
| 20260507162411 | 57 | 248 | 1.0 | 4.0 | 0.00 | 0.00 | 0.94 | 85 | 1003.8 |
| 20260507161902 | 57 | 293 | 2.0 | 4.0 | 0.00 | 0.00 | 0.94 | 84 | 1003.9 |
| 20260507161352 | 57 | 270 | 1.0 | 6.0 | 0.00 | 0.00 | 0.94 | 85 | 1004.1 |
| 20260507160841 | 58 | 248 | 2.0 | 6.0 | 0.00 | 0.00 | 0.94 | 85 | 1003.9 |
| 20260507155821 | 58 | 225 | 2.0 | 4.0 | 0.00 | 0.00 | 0.94 | 85 | 1004.1 |
| 20260507155311 | 58 | 315 | 2.0 | 4.0 | 0.00 | 0.00 | 0.94 | 85 | 1003.5 |
| 20260507154801 | 59 | 270 | 2.0 | 4.0 | 0.00 | 0.00 | 0.94 | 85 | 1003.6 |
| 20260507154250 | 59 | 248 | 2.0 | 6.0 | 0.00 | 0.00 | 0.94 | 84 | 1003.9 |
| 20260507153741 | 59 | 248 | 2.0 | 6.0 | 0.00 | 0.00 | 0.94 | 85 | 1003.5 |
| 20260507153230 | 58 | 248 | 3.0 | 4.0 | 0.00 | 0.00 | 0.94 | 85 | 1003.4 |
| 20260507152721 | 58 | 248 | 0.0 | 4.0 | 0.00 | 0.00 | 0.94 | 88 | 1003.7 |
| 20260507152210 | 58 | 248 | 1.0 | 4.0 | 0.00 | 0.00 | 0.94 | 88 | 1003.6 |
| 20260507151701 | 58 | 270 | 1.0 | 4.0 | 0.00 | 0.00 | 0.94 | 88 | 1003.7 |
| 20260507151150 | 59 | 270 | 0.0 | 4.0 | 0.00 | 0.00 | 0.94 | 87 | 1003.5 |
| 20260507150130 | 59 | 0 | 0.0 | 6.0 | 0.00 | 0.00 | 0.94 | 88 | 1003.1 |
| 20260507145620 | 58 | 293 | 2.0 | 6.0 | 0.00 | 0.00 | 0.94 | 88 | 1002.9 |
| 20260507145110 | 58 | 248 | 1.0 | 6.0 | 0.00 | 0.00 | 0.94 | 89 | 1003.3 |
| 20260507144559 | 58 | 248 | 1.0 | 4.0 | 0.00 | 0.00 | 0.94 | 90 | 1003.4 |
| 20260507144050 | 58 | 270 | 0.0 | 4.0 | 0.00 | 0.00 | 0.94 | 89 | 1003.4 |
| 20260507143030 | 57 | 270 | 2.0 | 6.0 | 0.00 | 0.00 | 0.94 | 89 | 1003.7 |
| 20260507142520 | 58 | 270 | 1.0 | 6.0 | 0.00 | 0.00 | 0.94 | 90 | 1003.7 |
| 20260507142009 | 58 | 270 | 2.0 | 4.0 | 0.00 | 0.00 | 0.94 | 89 | 1003.1 |
| 20260507140949 | 56 | 248 | 0.0 | 6.0 | 0.00 | 0.00 | 0.94 | 93 | 1003.4 |
| 20260507140439 | 56 | 225 | 0.0 | 6.0 | 0.00 | 0.00 | 0.94 | 95 | 1003.5 |
| 20260507135928 | 55 | 270 | 2.0 | 6.0 | 0.00 | 0.00 | 0.94 | 96 | 1003.7 |
| 20260507135418 | 55 | 270 | 2.0 | 6.0 | 0.00 | 0.00 | 0.94 | 98 | 1003.5 |
| 20260507134358 | 56 | 293 | 1.0 | 4.0 | 0.00 | 0.00 | 0.94 | 99 | 1002.9 |
| 20260507133848 | 56 | 315 | 0.0 | 4.0 | 0.00 | 0.00 | 0.94 | 99 | 1003.3 |
| 20260507133338 | 56 | 225 | 0.0 | 4.0 | 0.00 | 0.00 | 0.94 | 99 | 1003.2 |
| 20260507132828 | 56 | 203 | 0.0 | 4.0 | 0.00 | 0.00 | 0.94 | 99 | 1003.4 |
| 20260507132318 | 57 | 225 | 0.0 | 4.0 | 0.00 | 0.00 | 0.94 | 99 | 1004.0 |
| 20260507131807 | 57 | 225 | 0.0 | 0.0 | 0.00 | 0.00 | 0.94 | 99 | 1003.9 |
| 20260507131258 | 57 | 225 | 0.0 | 0.0 | 0.00 | 0.00 | 0.94 | 99 | 1003.9 |
| 20260507130237 | 57 | 270 | 0.0 | 2.0 | 0.00 | 0.00 | 0.94 | 99 | 1003.8 |
| 20260507125218 | 57 | 225 | 1.0 | 2.0 | 0.00 | 0.00 | 0.94 | 99 | 1003.8 |
| 20260507124707 | 57 | 270 | 1.0 | 6.0 | 0.00 | 0.00 | 0.94 | 99 | 1003.9 |
| 20260507124156 | 57 | 270 | 0.0 | 6.0 | 0.00 | 0.00 | 0.94 | 99 | 1003.7 |
| 20260507123647 | 57 | 270 | 3.0 | 4.0 | 0.00 | 0.00 | 0.94 | 99 | 1004.4 |
| 20260507123136 | 57 | 180 | 1.0 | 2.0 | 0.00 | 0.00 | 0.94 | 99 | 1002.8 |
| 20260507122627 | 57 | 248 | 0.0 | 0.0 | 0.00 | 0.00 | 0.94 | 99 | 1002.3 |
| 20260507122117 | 57 | 315 | 0.0 | 0.0 | 0.00 | 0.00 | 0.94 | 99 | 1002.2 |
| 20260507121607 | 57 | 248 | 0.0 | 0.0 | 0.00 | 0.00 | 0.94 | 99 | 1002.7 |
| 20260507121056 | 57 | 248 | 0.0 | 2.0 | 0.00 | 0.00 | 0.94 | 99 | 1002.5 |
| 20260507120549 | 57 | 270 | 0.0 | 4.0 | 0.00 | 0.00 | 0.94 | 99 | 1002.9 |
| 20260507120036 | 57 | 248 | 1.0 | 4.0 | 0.00 | 0.00 | 0.94 | 99 | 1003.0 |
| 20260507115015 | 57 | 248 | 1.0 | 4.0 | 0.00 | 0.00 | 0.94 | 99 | 1002.5 |
| 20260507114513 | 57 | 338 | 1.0 | 4.0 | 0.00 | 0.00 | 0.94 | 99 | 1002.2 |
| 20260507113955 | 57 | 23 | 2.0 | 4.0 | 0.00 | 0.00 | 0.94 | 99 | 1001.7 |
| 20260507113445 | 58 | 203 | 0.0 | 2.0 | 0.00 | 0.00 | 0.94 | 99 | 1001.4 |
| 20260507112935 | 57 | 270 | 1.0 | 2.0 | 0.00 | 0.00 | 0.94 | 99 | 1002.1 |
| 20260507112426 | 57 | 248 | 1.0 | 4.0 | 0.00 | 0.00 | 0.94 | 99 | 1002.5 |
| 20260507111915 | 57 | 248 | 2.0 | 4.0 | 0.00 | 0.00 | 0.94 | 99 | 1002.7 |
| 20260507111405 | 57 | 225 | 0.0 | 4.0 | 0.00 | 0.00 | 0.94 | 99 | 1003.0 |
| 20260507110855 | 57 | 203 | 0.0 | 2.0 | 0.00 | 0.00 | 0.94 | 99 | 1003.1 |
| 20260507110345 | 57 | 225 | 0.0 | 2.0 | 0.00 | 0.00 | 0.94 | 99 | 1003.1 |
| 20260507105835 | 57 | 293 | 1.0 | 2.0 | 0.00 | 0.00 | 0.94 | 99 | 1002.1 |
| 20260507105324 | 57 | 248 | 0.0 | 4.0 | 0.00 | 0.00 | 0.94 | 99 | 1001.7 |
| 20260507104815 | 57 | 225 | 0.0 | 4.0 | 0.00 | 0.00 | 0.94 | 99 | 1001.3 |
| 20260507104304 | 57 | 248 | 0.0 | 0.0 | 0.00 | 0.00 | 0.94 | 99 | 1001.8 |
| 20260507103755 | 57 | 270 | 0.0 | 0.0 | 0.00 | 0.00 | 0.94 | 99 | 1001.4 |
| 20260507103244 | 57 | 270 | 0.0 | 0.0 | 0.00 | 0.00 | 0.94 | 99 | 1002.0 |
| 20260507102734 | 57 | 248 | 0.0 | 2.0 | 0.00 | 0.00 | 0.94 | 99 | 1002.3 |
| 20260507102224 | 58 | 225 | 0.0 | 2.0 | 0.00 | 0.00 | 0.94 | 99 | 1002.1 |
| 20260507101204 | 58 | 270 | 1.0 | 4.0 | 0.00 | 0.00 | 0.94 | 99 | 1001.8 |
| 20260507100653 | 58 | 270 | 1.0 | 2.0 | 0.00 | 0.00 | 0.94 | 99 | 1001.6 |
| 20260507100143 | 58 | 23 | 1.0 | 4.0 | 0.00 | 0.00 | 0.94 | 99 | 1001.4 |
| 20260507095633 | 58 | 113 | 1.0 | 4.0 | 0.00 | 0.00 | 0.94 | 99 | 1001.3 |
| 20260507095124 | 58 | 270 | 1.0 | 4.0 | 0.00 | 0.00 | 0.94 | 99 | 1001.1 |
| 20260507094620 | 59 | 225 | 1.0 | 2.0 | 0.00 | 0.00 | 0.94 | 99 | 1000.8 |
| 20260507094103 | 59 | 270 | 1.0 | 6.0 | 0.00 | 0.00 | 0.94 | 99 | 1001.3 |
| 20260507093553 | 59 | 248 | 2.0 | 6.0 | 0.00 | 0.00 | 0.94 | 99 | 1000.8 |
| 20260507093043 | 59 | 293 | 0.0 | 2.0 | 0.00 | 0.00 | 0.94 | 99 | 1001.1 |
| 20260507092532 | 59 | 270 | 2.0 | 2.0 | 0.00 | 0.00 | 0.94 | 99 | 1001.9 |
| 20260507092023 | 59 | 248 | 1.0 | 2.0 | 0.00 | 0.00 | 0.94 | 99 | 1001.8 |
| 20260507091513 | 59 | 225 | 0.0 | 2.0 | 0.00 | 0.00 | 0.94 | 99 | 1002.1 |
| 20260507090452 | 60 | 248 | 0.0 | 4.0 | 0.00 | 0.00 | 0.94 | 99 | 1002.5 |
| 20260507085943 | 60 | 248 | 1.0 | 4.0 | 0.00 | 0.00 | 0.94 | 99 | 1002.3 |
| 20260507085432 | 60 | 248 | 0.0 | 2.0 | 0.00 | 0.00 | 0.94 | 99 | 1002.2 |
| 20260507084921 | 60 | 270 | 0.0 | 2.0 | 0.00 | 0.00 | 0.94 | 99 | 1002.1 |
| 20260507084412 | 60 | 293 | 0.0 | 4.0 | 0.00 | 0.00 | 0.94 | 99 | 1001.9 |
| 20260507083902 | 60 | 248 | 1.0 | 4.0 | 0.00 | 0.00 | 0.94 | 99 | 1001.9 |
| 20260507083352 | 60 | 270 | 0.0 | 2.0 | 0.00 | 0.00 | 0.94 | 99 | 1001.4 |
| 20260507082841 | 60 | 270 | 2.0 | 2.0 | 0.00 | 0.00 | 0.94 | 99 | 1001.5 |
| 20260507082331 | 60 | 248 | 0.0 | 0.0 | 0.00 | 0.00 | 0.94 | 99 | 1001.2 |
| 20260507081821 | 60 | 248 | 0.0 | 0.0 | 0.00 | 0.00 | 0.94 | 99 | 1001.6 |
| 20260507081311 | 60 | 248 | 0.0 | 0.0 | 0.00 | 0.00 | 0.94 | 99 | 1002.0 |
| 20260507080800 | 60 | 248 | 0.0 | 2.0 | 0.00 | 0.00 | 0.94 | 99 | 1002.4 |
| 20260507075740 | 61 | 248 | 0.0 | 2.0 | 0.00 | 0.00 | 0.94 | 99 | 1002.7 |
| 20260507075232 | 61 | 270 | 0.0 | 0.0 | 0.00 | 0.00 | 0.94 | 99 | 1002.9 |
| 20260507074210 | 61 | 248 | 0.0 | 2.0 | 0.00 | 0.00 | 0.94 | 99 | 1003.2 |
| 20260507073150 | 61 | 270 | 0.0 | 0.0 | 0.00 | 0.00 | 0.94 | 99 | 1002.4 |
| 20260507072640 | 61 | 248 | 0.0 | 0.0 | 0.00 | 0.00 | 0.94 | 99 | 1002.1 |
| 20260507072129 | 61 | 225 | 0.0 | 0.0 | 0.00 | 0.00 | 0.94 | 99 | 1001.7 |
| 20260507071109 | 62 | 248 | 0.0 | 0.0 | 0.00 | 0.00 | 0.94 | 99 | 1002.5 |
| 20260507070600 | 62 | 248 | 0.0 | 0.0 | 0.00 | 0.00 | 0.94 | 99 | 1002.2 |
| 20260507070049 | 61 | 248 | 0.0 | 0.0 | 0.00 | 0.00 | 0.94 | 99 | 1001.9 |
| 20260507064519 | 61 | 293 | 0.0 | 0.0 | 0.00 | 0.00 | 0.94 | 99 | 1001.8 |
| 20260507064009 | 61 | 315 | 0.0 | 0.0 | 0.00 | 0.00 | 0.94 | 99 | 1001.2 |
| 20260507062439 | 62 | 293 | 0.0 | 6.0 | 0.00 | 0.00 | 0.94 | 99 | 1001.1 |
| 20260507061928 | 62 | 68 | 4.0 | 6.0 | 0.00 | 0.00 | 0.94 | 99 | 1001.6 |
| 20260507061418 | 62 | 293 | 2.0 | 4.0 | 0.00 | 0.00 | 0.94 | 99 | 999.6 |
| 20260507060357 | 62 | 315 | 0.0 | 0.0 | 0.00 | 0.00 | 0.94 | 99 | 1001.0 |
| 20260507055536 | 62 | 248 | 0.0 | 4.0 | 0.04 | 0.94 | 0.94 | 99 | 1001.0 |
| 20260507055026 | 62 | 68 | 0.0 | 4.0 | 0.04 | 0.94 | 0.94 | 99 | 1000.9 |
| 20260507054516 | 62 | 68 | 1.0 | 4.0 | 0.04 | 0.94 | 0.94 | 99 | 1001.8 |
| 20260507054006 | 62 | 68 | 0.0 | 2.0 | 0.05 | 0.94 | 0.94 | 99 | 1002.8 |
| 20260507053456 | 62 | 90 | 0.0 | 2.0 | 0.05 | 0.94 | 0.94 | 99 | 1003.1 |
| 20260507052947 | 62 | 90 | 0.0 | 0.0 | 0.08 | 0.94 | 0.94 | 99 | 1003.4 |
| 20260507051415 | 62 | 248 | 0.0 | 4.0 | 0.08 | 0.92 | 0.92 | 99 | 1004.0 |
| 20260507050906 | 63 | 225 | 0.0 | 4.0 | 0.13 | 0.92 | 0.92 | 99 | 1002.6 |
| 20260507050356 | 63 | 248 | 0.0 | 4.0 | 0.14 | 0.91 | 0.91 | 99 | 1002.3 |
| 20260507044825 | 63 | 248 | 0.0 | 2.0 | 0.19 | 0.91 | 0.91 | 99 | 1002.1 |
| 20260507043255 | 63 | 180 | 0.0 | 4.0 | 0.47 | 0.89 | 0.89 | 99 | 1003.2 |
| 20260507041725 | 63 | 293 | 0.0 | 2.0 | 0.51 | 0.84 | 0.84 | 99 | 1003.6 |
| 20260507040704 | 63 | 203 | 0.0 | 2.0 | 0.63 | 0.78 | 0.78 | 99 | 1002.6 |
| 20260507035644 | 63 | 270 | 1.0 | 4.0 | 0.74 | 0.74 | 0.74 | 99 | 1001.6 |
| 20260507035133 | 63 | 270 | 2.0 | 2.0 | 0.72 | 0.72 | 0.73 | 99 | 1001.2 |
| 20260507034625 | 63 | 248 | 1.0 | 7.0 | 0.70 | 0.70 | 0.70 | 99 | 1002.1 |
| 20260507034113 | 63 | 293 | 2.0 | 7.0 | 0.66 | 0.66 | 0.66 | 99 | 1002.9 |
| 20260507033604 | 64 | 248 | 0.0 | 4.0 | 0.46 | 0.46 | 0.47 | 98 | 1003.6 |
| 20260507033053 | 64 | 248 | 2.0 | 4.0 | 0.41 | 0.41 | 0.41 | 98 | 1002.9 |
| 20260507032543 | 64 | 270 | 0.0 | 4.0 | 0.40 | 0.40 | 0.40 | 98 | 1002.2 |
| 20260507032033 | 64 | 270 | 0.0 | 7.0 | 0.40 | 0.40 | 0.40 | 97 | 1002.0 |
| 20260507031523 | 65 | 68 | 2.0 | 7.0 | 0.30 | 0.30 | 0.30 | 96 | 1001.5 |
| 20260507031012 | 67 | 270 | 1.0 | 4.0 | 0.21 | 0.21 | 0.21 | 93 | 1001.7 |
| 20260507030503 | 69 | 180 | 1.0 | 7.0 | 0.12 | 0.12 | 0.12 | 90 | 1001.9 |
| 20260507025952 | 76 | 293 | 2.0 | 7.0 | 0.00 | 0.00 | 0.00 | 84 | 1001.7 |
| 20260507025442 | 77 | 270 | 2.0 | 6.0 | 0.00 | 0.00 | 0.00 | 86 | 1000.7 |
| 20260507024932 | 77 | 248 | 1.0 | 8.0 | 0.00 | 0.00 | 0.00 | 84 | 1000.5 |
| 20260507024422 | 78 | 248 | 2.0 | 9.0 | 0.00 | 0.00 | 0.00 | 84 | 999.8 |
| 20260507023912 | 78 | 90 | 4.0 | 9.0 | 0.00 | 0.00 | 0.00 | 84 | 999.7 |
| 20260507023402 | 78 | 0 | 3.0 | 9.0 | 0.00 | 0.00 | 0.00 | 84 | 999.6 |
| 20260507022341 | 77 | 45 | 4.0 | 9.0 | 0.00 | 0.00 | 0.00 | 84 | 1000.2 |
| 20260507021831 | 77 | 68 | 3.0 | 9.0 | 0.00 | 0.00 | 0.00 | 85 | 1000.1 |
| 20260507021321 | 77 | 293 | 3.0 | 11.0 | 0.00 | 0.00 | 0.00 | 84 | 1000.1 |
| 20260507020812 | 77 | 338 | 3.0 | 11.0 | 0.00 | 0.00 | 0.00 | 84 | 1000.6 |
| 20260507020301 | 78 | 45 | 4.0 | 9.0 | 0.00 | 0.00 | 0.00 | 84 | 1000.4 |
| 20260507015752 | 78 | 45 | 4.0 | 11.0 | 0.00 | 0.00 | 0.00 | 84 | 1000.5 |
| 20260507015241 | 77 | 338 | 4.0 | 11.0 | 0.00 | 0.00 | 0.00 | 84 | 1000.6 |
| 20260507014731 | 77 | 23 | 4.0 | 11.0 | 0.00 | 0.00 | 0.00 | 84 | 1000.6 |
| 20260507014221 | 77 | 0 | 4.0 | 11.0 | 0.00 | 0.00 | 0.00 | 84 | 1000.9 |
| 20260507013710 | 77 | 45 | 5.0 | 11.0 | 0.00 | 0.00 | 0.00 | 84 | 1000.7 |
| 20260507013201 | 78 | 45 | 4.0 | 11.0 | 0.00 | 0.00 | 0.00 | 84 | 1000.7 |
| 20260507012651 | 78 | 23 | 4.0 | 13.0 | 0.00 | 0.00 | 0.00 | 84 | 1000.8 |
| 20260507012140 | 78 | 68 | 5.0 | 13.0 | 0.00 | 0.00 | 0.00 | 84 | 1001.0 |
| 20260507011630 | 78 | 45 | 3.0 | 11.0 | 0.00 | 0.00 | 0.00 | 84 | 1001.0 |
| 20260507011120 | 78 | 90 | 3.0 | 11.0 | 0.00 | 0.00 | 0.00 | 83 | 1001.2 |
| 20260507010610 | 78 | 68 | 4.0 | 11.0 | 0.00 | 0.00 | 0.00 | 83 | 1001.1 |
| 20260507010100 | 78 | 90 | 2.0 | 11.0 | 0.00 | 0.00 | 0.00 | 83 | 1001.0 |
| 20260507005550 | 78 | 90 | 4.0 | 11.0 | 0.00 | 0.00 | 0.00 | 83 | 1001.0 |
| 20260507004530 | 78 | 23 | 3.0 | 9.0 | 0.00 | 0.00 | 0.00 | 83 | 1001.2 |
| 20260507004020 | 78 | 23 | 2.0 | 11.0 | 0.00 | 0.00 | 0.00 | 83 | 1001.3 |
| 20260507003510 | 78 | 0 | 5.0 | 11.0 | 0.00 | 0.00 | 0.00 | 82 | 1001.2 |
| 20260507003000 | 78 | 45 | 4.0 | 8.0 | 0.00 | 0.00 | 0.00 | 82 | 1001.2 |
| 20260507002449 | 78 | 45 | 4.0 | 11.0 | 0.00 | 0.00 | 0.00 | 82 | 1001.2 |
| 20260507001940 | 78 | 68 | 3.0 | 11.0 | 0.00 | 0.00 | 0.00 | 82 | 1001.2 |
| 20260507001429 | 78 | 68 | 4.0 | 9.0 | 0.00 | 0.00 | 0.00 | 82 | 1001.0 |
| 20260507000918 | 78 | 68 | 2.0 | 11.0 | 0.00 | 0.00 | 0.00 | 82 | 1001.1 |
| 20260507000409 | 78 | 68 | 4.0 | 11.0 | 0.00 | 0.00 | 0.00 | 82 | 1001.1 |
| 20260506235859 | 79 | 68 | 4.0 | 13.0 | 0.00 | 0.00 | 0.00 | 82 | 1000.8 |
| 20260506235349 | 79 | 68 | 4.0 | 13.0 | 0.00 | 0.00 | 0.00 | 81 | 1000.6 |
| 20260506234838 | 79 | 338 | 4.0 | 11.0 | 0.00 | 0.00 | 0.00 | 81 | 1000.9 |
| 20260506234328 | 79 | 0 | 4.0 | 11.0 | 0.00 | 0.00 | 0.00 | 81 | 1001.2 |
| 20260506233818 | 79 | 45 | 3.0 | 13.0 | 0.00 | 0.00 | 0.00 | 81 | 1001.4 |
| 20260506233308 | 79 | 45 | 4.0 | 13.0 | 0.00 | 0.00 | 0.00 | 81 | 1001.1 |
| 20260506232758 | 79 | 90 | 5.0 | 11.0 | 0.00 | 0.00 | 0.00 | 81 | 1000.8 |
| 20260506232248 | 79 | 158 | 2.0 | 11.0 | 0.00 | 0.00 | 0.00 | 82 | 1000.2 |
| 20260506231738 | 78 | 68 | 2.0 | 11.0 | 0.00 | 0.00 | 0.00 | 82 | 1000.0 |
| 20260506231231 | 78 | 45 | 4.0 | 11.0 | 0.00 | 0.00 | 0.00 | 82 | 1000.2 |
| 20260506230717 | 78 | 45 | 2.0 | 11.0 | 0.00 | 0.00 | 0.00 | 82 | 1000.5 |
| 20260506230208 | 78 | 45 | 5.0 | 11.0 | 0.00 | 0.00 | 0.00 | 81 | 1000.9 |
| 20260506225657 | 79 | 45 | 2.0 | 7.0 | 0.00 | 0.00 | 0.00 | 81 | 1001.0 |
| 20260506225148 | 79 | 338 | 2.0 | 7.0 | 0.00 | 0.00 | 0.00 | 81 | 1001.3 |
| 20260506224127 | 78 | 68 | 3.0 | 7.0 | 0.00 | 0.00 | 0.00 | 81 | 1001.1 |
| 20260506223617 | 78 | 90 | 3.0 | 7.0 | 0.00 | 0.00 | 0.00 | 81 | 1000.9 |
| 20260506222047 | 78 | 90 | 2.0 | 6.0 | 0.00 | 0.00 | 0.00 | 81 | 1001.6 |
| 20260506221537 | 78 | 68 | 2.0 | 4.0 | 0.00 | 0.00 | 0.00 | 81 | 1001.6 |
| 20260506221027 | 79 | 68 | 2.0 | 6.0 | 0.00 | 0.00 | 0.00 | 80 | 1001.6 |
| 20260506220017 | 79 | 45 | 3.0 | 6.0 | 0.00 | 0.00 | 0.00 | 79 | 1001.6 |
| 20260506215457 | 79 | 68 | 4.0 | 6.0 | 0.00 | 0.00 | 0.00 | 79 | 1001.9 |
| 20260506214435 | 79 | 90 | 3.0 | 6.0 | 0.00 | 0.00 | 0.00 | 79 | 1002.0 |
| 20260506213925 | 79 | 113 | 3.0 | 7.0 | 0.00 | 0.00 | 0.00 | 80 | 1002.2 |
| 20260506213415 | 79 | 90 | 3.0 | 7.0 | 0.00 | 0.00 | 0.00 | 79 | 1002.2 |
| 20260506212905 | 79 | 90 | 2.0 | 4.0 | 0.00 | 0.00 | 0.00 | 80 | 1002.2 |
| 20260506212355 | 80 | 45 | 3.0 | 4.0 | 0.00 | 0.00 | 0.00 | 80 | 1002.2 |
| 20260506211845 | 80 | 68 | 2.0 | 4.0 | 0.00 | 0.00 | 0.00 | 79 | 1002.4 |
| 20260506211335 | 80 | 68 | 2.0 | 4.0 | 0.00 | 0.00 | 0.00 | 79 | 1002.7 |
| 20260506210826 | 81 | 68 | 2.0 | 4.0 | 0.00 | 0.00 | 0.00 | 78 | 1002.7 |
| 20260506210314 | 82 | 68 | 2.0 | 4.0 | 0.00 | 0.00 | 0.00 | 76 | 1002.8 |
| 20260506205805 | 82 | 68 | 2.0 | 4.0 | 0.00 | 0.00 | 0.00 | 76 | 1003.2 |
| 20260506205255 | 82 | 90 | 2.0 | 4.0 | 0.00 | 0.00 | 0.00 | 76 | 1002.9 |
| 20260506204234 | 81 | 338 | 2.0 | 4.0 | 0.00 | 0.00 | 0.00 | 79 | 1003.3 |
| 20260506203725 | 81 | 90 | 1.0 | 4.0 | 0.00 | 0.00 | 0.00 | 80 | 1003.3 |
| 20260506203214 | 81 | 90 | 0.0 | 4.0 | 0.00 | 0.00 | 0.00 | 80 | 1003.4 |
| 20260506202703 | 82 | 90 | 1.0 | 4.0 | 0.00 | 0.00 | 0.00 | 79 | 1003.3 |
| 20260506202203 | 82 | 90 | 2.0 | 4.0 | 0.00 | 0.00 | 0.00 | 79 | 1003.2 |
| 20260506201644 | 82 | 90 | 2.0 | 8.0 | 0.00 | 0.00 | 0.00 | 78 | 1003.3 |
| 20260506201134 | 82 | 68 | 2.0 | 8.0 | 0.00 | 0.00 | 0.00 | 78 | 1002.9 |
| 20260506200624 | 82 | 315 | 4.0 | 8.0 | 0.00 | 0.00 | 0.00 | 77 | 1002.9 |
| 20260506200113 | 83 | 68 | 2.0 | 7.0 | 0.00 | 0.00 | 0.00 | 76 | 1002.9 |
| 20260506195603 | 84 | 68 | 2.0 | 9.0 | 0.00 | 0.00 | 0.00 | 75 | 1002.9 |
| 20260506195053 | 84 | 90 | 4.0 | 9.0 | 0.00 | 0.00 | 0.00 | 75 | 1002.7 |
| 20260506194543 | 84 | 45 | 4.0 | 8.0 | 0.00 | 0.00 | 0.00 | 74 | 1003.1 |
| 20260506194033 | 85 | 68 | 3.0 | 8.0 | 0.00 | 0.00 | 0.00 | 74 | 1003.1 |
| 20260506193523 | 85 | 68 | 3.0 | 8.0 | 0.00 | 0.00 | 0.00 | 74 | 1003.1 |
| 20260506192502 | 83 | 68 | 2.0 | 7.0 | 0.00 | 0.00 | 0.00 | 76 | 1003.2 |
| 20260506191952 | 83 | 90 | 2.0 | 7.0 | 0.00 | 0.00 | 0.00 | 75 | 1003.4 |